map of BJV home
BJV - Airport
Location
City:  Bodrum, Mugla, Turkey
Name:Milas
ICAO:LTFE
IATA:BJV

Details
Type:Airport (Aerodrome, Airfield)
Use:Public/Civil, International (customs port of entry)
Latitude:3715'02"N (37.250611)
Longitude:2739'52"E (27.664311)
Datum:WGS 1984
Elevation:21 ft (6 m)
Variation:4.73E (WMM2015 magnetic declination)
0.10 annual change
Runways:1
Longest:9842 × 148 ft (3000 × 45 m), paved

Time
Time Zone:UTC+3
Local Time:

Weather
METAR:LTFE 070820Z VRB02KT 9999 FEW035 BKN100 11/06 Q1027 NOSIG RMK RWY10 00000KT
TAF:LTFE 062240Z 0700/0724 VRB02KT CAVOK PROB40 0703/0706 4000 BR
BECMG 0703/0706 FEW035 BKN200
BECMG 0710/0712 26012KT
BECMG 0714/0717 02012KT CAVOK

Related Locations
Nearby:
Farthest:RVV: 11469 mi / 18458 km
Raivavae, Tubuai Islands, Austral Islands, PF

Find:

   beyond  
but within

Other Information
Maps:
NOTAMs:
Links:
Sources:

  
flag of Turkey   

Sectional Chart

Flight Planning
at skyvector.com

Satellite Image

Google Maps Satellite view

 

Copyright © 2004-2016 Karl L. Swartz. All rights reserved.
The Great Circle Mapper name and logo are trademarks of the Great Circle Mapper.
All other trademarks mentioned herein belong to their respective owners.
Please see credits for attibutions and further copyright information.

  Follow gcmap on Facebook Follow gcmap on Twitter Follow gcmap on Google+ GCmap on LinkedIn

hCard Microformat

Geo Microformat